TimeEDT,TemperatureF,Dew PointF,Humidity,Sea Level PressureIn,VisibilityMPH,Wind Direction,Wind SpeedMPH,Gust SpeedMPH,PrecipitationIn,Events,Conditions,WindDirDegrees,DateUTC
12:56 AM,36.0,30.9,82,30.11,10.0,West,10.4,19.6,0.00,,Overcast,260,2013-04-25 04:56:00
1:56 AM,35.1,30.9,85,30.12,10.0,West,8.1,-,N/A,,Overcast,280,2013-04-25 05:56:00
2:13 AM,35.6,30.2,81,30.10,10.0,West,8.1,18.4,N/A,,Overcast,270,2013-04-25 06:13:00
2:29 AM,35.6,30.2,81,30.10,10.0,West,8.1,-,N/A,,Overcast,270,2013-04-25 06:29:00
2:52 AM,35.6,30.2,81,30.11,10.0,West,5.8,-,N/A,,Overcast,280,2013-04-25 06:52:00
2:56 AM,36.0,30.9,82,30.14,10.0,West,9.2,-,N/A,,Overcast,270,2013-04-25 06:56:00
3:18 AM,35.6,30.2,81,30.13,10.0,WSW,8.1,-,N/A,,Overcast,250,2013-04-25 07:18:00
3:44 AM,35.6,30.2,81,30.14,10.0,West,6.9,-,N/A,,Overcast,260,2013-04-25 07:44:00
3:56 AM,35.1,30.9,85,30.17,10.0,West,8.1,-,N/A,,Overcast,270,2013-04-25 07:56:00
4:23 AM,35.6,30.2,81,30.15,10.0,West,10.4,-,N/A,,Overcast,260,2013-04-25 08:23:00
4:56 AM,35.1,30.9,85,30.17,10.0,WSW,8.1,-,N/A,,Mostly Cloudy,250,2013-04-25 08:56:00
5:11 AM,35.6,30.2,81,30.16,10.0,West,3.5,-,N/A,,Mostly Cloudy,260,2013-04-25 09:11:00
5:36 AM,35.6,30.2,81,30.17,10.0,West,5.8,-,N/A,,Overcast,260,2013-04-25 09:36:00
5:46 AM,35.6,30.2,81,30.17,10.0,West,6.9,-,N/A,,Overcast,260,2013-04-25 09:46:00
5:54 AM,35.6,30.2,81,30.17,10.0,WSW,6.9,-,N/A,,Overcast,250,2013-04-25 09:54:00
5:56 AM,35.1,30.9,85,30.19,10.0,West,6.9,-,N/A,,Overcast,260,2013-04-25 09:56:00
6:56 AM,35.1,30.0,82,30.22,10.0,West,6.9,-,N/A,,Mostly Cloudy,260,2013-04-25 10:56:00
7:03 AM,35.6,30.2,81,30.19,10.0,West,5.8,-,N/A,,Scattered Clouds,260,2013-04-25 11:03:00
7:56 AM,36.0,30.0,79,30.24,10.0,SW,9.2,-,N/A,,Partly Cloudy,230,2013-04-25 11:56:00
8:56 AM,39.0,30.9,73,30.25,10.0,West,6.9,-,N/A,,Clear,270,2013-04-25 12:56:00
9:49 AM,39.2,28.4,65,30.23,10.0,West,8.1,-,N/A,,Mostly Cloudy,260,2013-04-25 13:49:00
9:56 AM,39.9,28.0,63,30.26,10.0,SW,5.8,-,N/A,,Mostly Cloudy,230,2013-04-25 13:56:00
10:37 AM,41.0,26.6,57,30.23,10.0,South,4.6,-,N/A,,Mostly Cloudy,170,2013-04-25 14:37:00
10:56 AM,44.1,28.0,53,30.26,10.0,West,9.2,-,N/A,,Mostly Cloudy,260,2013-04-25 14:56:00
11:56 AM,46.0,28.9,51,30.25,10.0,Variable,4.6,-,N/A,,Clear,0,2013-04-25 15:56:00
12:56 PM,46.9,26.1,44,30.24,10.0,SW,6.9,-,N/A,,Clear,230,2013-04-25 16:56:00
1:56 PM,51.1,27.0,39,30.22,10.0,SW,15.0,19.6,N/A,,Clear,230,2013-04-25 17:56:00
2:56 PM,52.0,25.0,35,30.20,10.0,WSW,11.5,17.3,N/A,,Clear,240,2013-04-25 18:56:00
3:56 PM,53.1,25.0,34,30.19,10.0,West,13.8,18.4,N/A,,Clear,260,2013-04-25 19:56:00
4:56 PM,55.0,24.1,30,30.18,10.0,West,17.3,24.2,N/A,,Clear,260,2013-04-25 20:56:00
5:56 PM,53.1,25.0,34,30.20,10.0,SW,15.0,20.7,N/A,,Mostly Cloudy,230,2013-04-25 21:56:00
6:56 PM,52.0,26.1,37,30.21,10.0,SW,6.9,-,N/A,,Overcast,230,2013-04-25 22:56:00
7:56 PM,48.9,28.9,46,30.25,10.0,West,17.3,26.5,N/A,,Overcast,270,2013-04-25 23:56:00
8:56 PM,44.1,35.1,71,30.29,10.0,West,11.5,24.2,0.00,,Overcast,280,2013-04-26 00:56:00
9:03 PM,44.6,35.6,71,30.27,10.0,West,19.6,27.6,N/A,,Overcast,280,2013-04-26 01:03:00
9:56 PM,39.9,36.0,86,30.34,10.0,West,5.8,-,0.02,,Overcast,260,2013-04-26 01:56:00
10:56 PM,39.9,37.0,89,30.33,8.0,SSW,3.5,-,N/A,,Overcast,210,2013-04-26 02:56:00
11:56 PM,39.0,36.0,89,30.34,10.0,WSW,5.8,-,N/A,,Mostly Cloudy,250,2013-04-26 03:56:00